Simultaneous Nadir Overpasses (SNOs) Predictions

Prediction of SNOs between NOAA-21 and METOP-C Satellite Orbit:

Table of predicted SNOs for the next 14.0 days since TLE Epoch: 5/27/2023
Index Date (NOAA-21) Time (NOAA-21) Lat,Lon (NOAA-21) SZA (NOAA-21 ) Date (METOP-C) Time (METOP-C) Lat,Lon (METOP-C) SZA (METOP-C ) Distance(km) Time Diff (sec)
1 06/08/2023 09:55:17 73.31, 21.58 50.64 06/08/2023 09:56:25 73.27, 23.78 50.48 70.53 68
2 06/08/2023 10:46:00 -73.25,-170.98 129.43 06/08/2023 10:47:09 -73.19,-169.08 129.60 61.53 69
3 06/08/2023 11:36:41 73.01, -3.14 50.30 06/08/2023 11:37:53 72.94, -2.27 50.18 29.62 72
4 06/08/2023 12:27:24 -72.95, 164.29 129.76 06/08/2023 12:28:36 -72.91, 164.99 129.86 23.50 72
5 06/08/2023 13:18:06 72.76, -28.00 50.03 06/08/2023 13:19:18 72.76, -27.98 50.01 0.61 72
6 06/08/2023 14:08:50 -72.76, 139.33 129.98 06/08/2023 14:10:01 -72.73, 139.28 130.02 3.27 71
7 06/08/2023 14:59:36 72.77, -53.38 50.03 06/08/2023 15:00:40 72.74, -53.37 49.98 3.45 64
8 06/08/2023 15:50:20 -72.76, 113.94 129.98 06/08/2023 15:51:22 -72.76, 114.00 130.01 1.93 62
9 06/08/2023 16:41:05 72.72, -78.66 49.97 06/08/2023 16:42:02 72.71, -78.76 49.95 3.52 57
10 06/08/2023 17:31:49 -72.72, 88.66 130.04 06/08/2023 17:32:44 -72.73, 88.60 130.03 2.42 55
11 06/08/2023 18:22:35 72.73,-104.05 49.97 06/08/2023 18:23:23 72.74,-104.05 49.97 1.01 48
12 06/08/2023 19:13:19 -72.72, 63.28 130.04 06/08/2023 19:14:06 -72.71, 63.21 130.06 2.73 47
13 06/08/2023 20:04:05 72.73,-129.43 49.97 06/08/2023 20:04:45 72.71,-129.44 49.94 2.44 40
14 06/08/2023 20:54:49 -72.73, 37.89 130.04 06/08/2023 20:55:27 -72.73, 37.93 130.05 1.28 38
15 06/08/2023 21:45:35 72.74,-154.82 49.97 06/08/2023 21:46:06 72.74,-154.73 49.96 2.99 31
16 06/08/2023 22:36:19 -72.73, 12.50 130.04 06/08/2023 22:36:49 -72.71, 12.54 130.07 3.11 30
17 06/08/2023 23:27:04 72.69, 179.90 49.92 06/08/2023 23:27:28 72.71, 179.88 49.93 2.13 24
18 06/09/2023 00:17:48 -72.69, -12.78 130.10 06/09/2023 00:18:11 -72.68, -12.86 130.10 2.73 23
19 06/09/2023 01:08:34 72.70, 154.51 49.92 06/09/2023 01:08:50 72.69, 154.49 49.90 1.70 16
20 06/09/2023 01:59:18 -72.69, -38.16 130.10 06/09/2023 01:59:32 -72.71, -38.14 130.09 1.66 14
21 06/09/2023 02:50:04 72.70, 129.13 49.92 06/09/2023 02:50:11 72.71, 129.20 49.92 2.47 7
22 06/09/2023 03:40:48 -72.70, -63.55 130.10 06/09/2023 03:40:54 -72.68, -63.53 130.11 1.89 6
23 06/09/2023 04:31:33 72.66, 103.85 49.86 06/09/2023 04:31:33 72.68, 103.81 49.89 3.28 0
24 06/09/2023 05:22:17 -72.65, -88.83 130.15 06/09/2023 05:22:16 -72.66, -88.93 130.14 3.24 1
25 06/09/2023 06:13:03 72.66, 78.46 49.86 06/09/2023 06:12:55 72.66, 78.41 49.86 1.60 8
26 06/09/2023 07:03:47 -72.66,-114.21 130.15 06/09/2023 07:03:37 -72.68,-114.21 130.13 2.65 10
27 06/09/2023 07:54:33 72.67, 53.08 49.86 06/09/2023 07:54:16 72.68, 53.13 49.88 2.46 17
28 06/09/2023 08:45:17 -72.66,-139.60 130.15 06/09/2023 08:44:59 -72.66,-139.60 130.15 0.76 18
29 06/09/2023 09:36:03 72.67, 27.69 49.86 06/09/2023 09:35:38 72.66, 27.74 49.85 2.25 25
30 06/09/2023 10:26:47 -72.67,-164.98 130.15 06/09/2023 10:26:20 -72.68,-164.89 130.14 3.42 27
31 06/09/2023 11:17:32 72.63, 2.41 49.81 06/09/2023 11:17:00 72.63, 2.34 49.82 2.22 32
32 06/09/2023 12:08:17 -72.68, 169.63 130.15 06/09/2023 12:07:42 -72.66, 169.72 130.17 3.45 35
33 06/09/2023 12:59:02 72.63, -22.98 49.81 06/09/2023 12:58:21 72.66, -22.94 49.84 2.96 41
34 06/09/2023 13:49:46 -72.63, 144.35 130.21 06/09/2023 13:49:04 -72.63, 144.33 130.19 0.81 42
35 06/09/2023 14:40:32 72.64, -48.36 49.81 06/09/2023 14:39:43 72.63, -48.34 49.81 1.13 49
36 06/09/2023 15:31:16 -72.63, 118.96 130.21 06/09/2023 15:30:26 -72.61, 118.94 130.22 3.19 50
37 06/09/2023 16:22:01 72.59, -73.64 49.75 06/09/2023 16:21:05 72.61, -73.73 49.78 3.15 56
38 06/09/2023 17:12:46 -72.64, 93.58 130.21 06/09/2023 17:11:47 -72.63, 93.65 130.20 2.46 59
39 06/09/2023 18:03:31 72.60, -99.03 49.75 06/09/2023 18:02:27 72.58, -99.12 49.75 3.56 64
40 06/09/2023 18:54:15 -72.59, 68.30 130.26 06/09/2023 18:53:09 -72.61, 68.26 130.23 1.92 66
41 06/09/2023 19:45:01 72.61,-124.42 49.75 06/09/2023 19:43:48 72.61,-124.41 49.77 0.38 73
42 06/09/2023 20:35:44 -72.60, 42.91 130.26 06/09/2023 20:34:30 -72.58, 42.87 130.26 2.47 74
43 06/09/2023 21:26:25 72.36,-149.29 49.47 06/09/2023 21:25:13 72.38,-150.21 49.56 30.99 72
44 06/09/2023 22:17:09 -72.35, 18.03 130.54 06/09/2023 22:15:56 -72.35, 17.07 130.47 32.49 73
45 06/09/2023 23:07:49 72.05,-174.08 49.14 06/09/2023 23:06:41 72.04,-176.19 49.26 72.42 68
46 06/09/2023 23:58:32 -72.00, -6.66 130.92 06/09/2023 23:57:24 -72.02, -8.91 130.77 77.26 68



Historial Predications of SNOs between NOAA-21 and METOP-C
